Wetbulb
64.41 62.11 63.73 60.07 52.17 50.72 48.02 48.18 53.48 54.06 54.59 56.80 62.67 62.03 61.05 61.92 60.72 59.52 71.32 72.94 71.24 71.49 70.51 72.38 71.97 72.35 72.91 73.33 73.68 73.81 74.15 74.23 73.98 73.83 73.75 73.68 73.88 73.90 73.60 73.67 73.41 73.19 73.24 72.58 72.66 72.47 72.34 72.49 72.50
61.75 61.07 61.02 57.52 48.64 46.29 47.45 50.75 51.74 54.76 55.39 56.76 57.08 62.96 61.62 60.53 65.83 68.64 70.31 71.77 72.14 71.80 70.83 70.78 71.63 71.80 72.35 72.72 73.01 73.57 74.04 73.84 73.53 73.58 73.60 73.83 73.88 73.81 73.51 73.40 73.03 72.83 73.02 72.51 72.36 72.26 71.98 72.13 72.16
60.94 61.28 55.37 51.91 48.64 46.22 47.73 51.29 53.99 54.73 56.63 58.12 58.51 64.50 63.64 62.83 68.08 69.81 72.64 72.50 72.64 71.83 71.02 71.11 71.30 71.27 71.88 72.35 72.60 72.98 73.02 72.82 72.89 73.20 73.78 73.88 73.81 73.59 73.51 72.94 72.47 72.71 73.04 72.24 72.16 71.95 71.54 71.70 71.29
59.05 58.60 55.79 48.92 46.96 49.41 50.14 54.39 54.01 54.38 55.56 59.69 62.05 61.40 65.68 69.74 69.60 71.44 72.43 72.42 72.27 71.80 71.66 70.59 70.60 70.95 71.71 72.13 72.29 72.28 72.16 71.87 72.19 72.57 73.35 73.63 73.59 73.37 73.00 72.19 72.46 72.68 72.89 72.32 71.93 71.42 71.12 70.67 70.47
59.48 56.01 49.55 47.83 47.95 50.08 52.63 55.17 53.78 53.14 53.73 54.86 57.03 61.38 63.77 69.94 71.79 72.51 71.62 71.82 71.57 71.75 72.20 71.90 69.84 70.78 71.47 72.09 72.04 71.60 71.37 71.38 71.70 72.12 72.43 72.85 73.11 72.80 72.14 71.89 72.17 72.37 72.41 72.41 71.66 70.76 70.07 69.85 69.53
53.97 54.29 46.79 45.39 47.41 50.10 52.34 54.15 53.51 53.27 53.85 55.17 57.08 61.78 64.92 71.18 71.61 71.69 71.96 71.69 72.49 72.04 72.39 70.99 70.99 70.88 71.05 71.22 71.14 70.57 70.60 70.80 71.07 71.42 71.69 72.05 71.92 71.31 71.28 71.67 71.82 71.81 71.52 71.26 70.83 70.06 69.53 69.12 69.00
52.14 50.65 46.60 46.75 46.94 48.19 50.79 54.17 52.68 53.04 54.02 54.56 58.11 59.92 66.51 69.37 72.16 72.22 72.12 72.25 72.54 73.31 72.62 71.50 71.06 71.77 70.48 69.91 69.56 69.32 69.76 70.04 70.51 70.58 70.74 70.94 70.43 70.04 70.68 71.07 71.07 70.98 70.62 70.37 69.87 69.38 69.08 69.07 68.53
54.03 51.85 47.71 47.99 46.85 47.10 51.64 52.83 53.87 53.79 53.88 57.50 64.29 61.86 64.12 69.78 72.14 72.38 72.25 72.13 72.43 73.38 73.22 72.00 71.48 71.15 71.73 72.49 69.00 68.85 69.25 69.39 69.74 70.10 70.15 69.58 69.15 69.62 70.02 70.03 70.27 70.01 69.73 69.30 69.00 68.38 68.17 67.78 67.06
55.25 48.33 45.62 47.25 47.11 48.27 51.80 50.63 54.02 56.04 54.59 55.45 60.63 61.82 66.10 71.11 71.82 71.40 71.11 71.34 71.72 72.31 73.38 73.03 71.97 71.78 71.60 71.64 71.41 69.62 69.54 69.34 69.35 70.00 69.44 68.43 69.47 70.09 70.21 68.85 68.93 68.78 68.02 67.74 67.63 66.93 66.17 65.65 65.57
50.84 47.17 46.82 50.40 50.83 49.30 50.83 51.72 52.73 52.73 53.98 54.19 56.34 59.56 66.95 70.15 70.52 70.03 69.80 69.99 70.33 70.61 72.06 73.48 73.29 72.25 72.34 71.33 72.15 71.60 71.19 71.00 70.93 70.60 71.12 69.95 69.97 69.96 69.12 68.75 68.16 67.76 67.02 66.78 66.43 65.85 65.10 64.15 66.14
50.65 46.85 50.12 50.55 51.72 51.94 50.97 51.38 53.51 51.93 51.16 54.80 55.21 55.82 59.13 67.52 69.89 70.09 70.00 70.09 70.70 70.80 71.63 72.66 73.47 73.76 73.15 71.98 72.26 71.36 71.48 71.38 71.38 71.65 71.26 70.90 70.61 70.38 69.65 70.03 69.46 69.44 67.32 67.69 66.59 66.13 66.08 66.39 66.69
47.67 50.04 50.39 50.75 51.94 51.39 50.61 52.65 51.63 52.23 52.71 55.72 56.03 56.83 57.15 61.74 68.20 69.59 69.58 69.61 69.86 70.41 71.07 72.29 73.12 73.43 73.69 72.72 72.24 72.05 71.76 71.97 71.96 72.38 72.61 71.32 70.52 70.52 69.54 69.46 69.33 69.48 68.46 68.61 68.06 67.56 67.84 67.91 67.95
48.67 49.40 50.71 50.95 50.93 51.12 51.36 50.35 50.67 51.13 53.94 55.42 55.62 55.76 56.53 59.78 65.23 69.88 70.42 70.20 70.06 69.52 70.53 71.54 72.88 73.16 73.11 73.18 72.61 72.45 72.05 72.15 72.85 72.79 73.11 72.16 70.71 70.35 70.25 70.28 70.19 70.02 69.55 69.07 68.47 68.30 68.26 68.14 68.36
48.79 49.47 49.97 50.76 50.18 51.02 49.36 49.64 50.96 51.79 53.95 53.65 53.97 54.53 56.24 59.32 63.92 69.68 69.76 69.34 69.46 69.73 70.33 71.74 71.88 72.89 73.00 72.82 73.18 72.59 72.82 72.90 72.91 72.84 72.87 72.90 71.66 71.02 70.54 70.26 70.34 70.34 70.20 69.76 69.34 68.90 69.03 69.44 69.56
48.53 46.01 48.30 48.62 49.32 47.95 49.50 46.73 47.29 51.76 53.01 52.34 54.11 54.87 56.04 57.97 63.97 68.45 70.52 69.82 69.86 69.69 70.51 71.33 71.92 72.71 72.67 72.68 72.83 72.83 72.74 72.74 72.41 72.65 73.39 73.06 72.53 71.68 71.04 70.51 70.02 70.49 70.81 70.70 70.36 70.52 70.92 70.66 70.78
45.48 45.73 41.69 46.51 48.11 48.70 47.69 43.07 47.92 51.41 51.58 51.51 52.41 53.54 54.87 56.99 59.46 67.42 71.46 71.11 70.85 70.27 69.79 71.18 71.19 71.75 72.38 72.42 72.21 72.22 72.41 72.60 72.42 72.59 72.89 72.87 72.81 72.44 71.49 70.29 70.05 70.75 70.92 70.60 70.08 70.30 69.98 70.31 70.51
44.96 40.20 41.85 43.32 47.10 47.24 47.16 44.40 48.55 50.89 50.67 51.07 52.54 53.25 54.06 55.92 58.42 64.05 70.82 72.09 71.21 70.60 70.69 70.69 71.40 70.98 71.89 72.16 72.06 72.29 72.72 72.24 72.21 72.35 72.03 72.21 72.54 72.45 71.71 70.67 70.63 71.10 70.53 70.11 70.03 70.22 70.45 69.45 69.62
40.57 40.95 42.78 42.54 46.28 45.74 44.57 45.03 47.47 49.71 50.29 50.50 52.02 53.10 54.08 55.06 56.94 59.55 66.99 71.46 71.79 71.04 71.92 72.36 72.30 71.88 71.82 71.94 72.01 71.99 71.82 71.89 71.85 71.66 71.29 72.06 72.04 72.35 71.88 71.14 70.98 71.03 69.87 69.71 69.80 69.96 70.11 70.03 69.75
45.64 43.27 42.46 44.62 46.87 45.52 44.42 45.06 46.75 48.99 49.64 50.72 51.70 53.07 54.19 54.94 57.74 59.60 60.62 64.91 70.87 71.65 71.71 72.36 72.52 72.97 72.49 71.44 70.59 70.51 70.07 70.93 70.91 71.50 71.76 71.77 72.08 72.35 71.94 71.14 70.90 70.87 69.73 69.60 70.05 69.94 68.87 68.47 69.56
44.30 42.16 42.32 44.72 46.72 46.15 45.37 45.51 48.89 49.91 50.17 50.79 50.45 52.24 53.65 55.08 56.10 57.81 59.82 60.82 61.25 63.45 69.68 71.45 72.13 72.88 73.07 72.60 72.12 72.05 71.66 71.83 71.82 71.85 71.73 71.62 71.62 72.02 71.63 71.04 70.49 70.79 69.65 69.79 69.73 69.53 67.73 67.22 68.64
43.54 42.46 42.73 42.38 45.52 46.82 44.77 43.26 46.10 49.17 50.46 51.15 52.71 53.53 54.39 54.77 55.28 56.93 58.30 60.04 61.58 62.13 62.59 63.84 67.93 71.19 73.04 72.82 72.71 72.54 72.49 72.21 71.32 71.11 71.16 71.31 71.45 71.50 71.34 71.09 70.74 70.64 70.29 68.99 69.56 69.46 68.88 66.34 63.22
40.26 45.51 44.07 43.11 41.37 37.91 45.43 37.06 44.96 48.16 48.63 50.07 51.02 51.90 52.76 53.83 55.55 56.51 57.41 58.61 60.06 61.55 63.30 63.21 63.10 65.14 68.87 72.35 70.67 71.29 69.66 69.42 71.32 71.29 71.63 71.53 71.50 71.11 71.22 70.85 70.79 70.98 70.20 69.65 69.78 69.59 69.66 69.30 65.04
42.28 46.20 43.97 43.20 41.78 41.27 42.24 39.65 44.12 48.70 47.33 49.08 51.01 51.83 52.09 53.21 54.14 55.12 55.97 57.11 58.47 60.44 62.05 64.18 63.82 62.92 64.13 69.57 70.94 71.22 70.27 71.22 71.33 70.99 70.92 71.86 71.23 70.85 70.52 71.01 70.89 70.39 70.60 70.45 70.78 69.69 69.56 67.93 65.47
46.33 43.50 42.71 42.34 41.12 33.53 40.10 40.04 40.83 44.73 47.80 50.21 51.75 51.95 52.01 51.64 52.64 54.25 55.82 57.13 57.50 59.16 61.92 63.21 63.66 63.30 63.44 65.39 70.43 70.76 70.60 70.15 69.55 70.70 70.13 70.19 70.17 70.16 70.71 70.41 70.62 71.16 70.80 70.23 70.50 70.38 69.17 68.61 67.85
43.62 39.19 31.30 29.79 30.69 31.28 40.64 38.20 41.10 45.41 47.35 49.07 49.00 49.91 50.63 52.02 53.19 54.21 54.57 56.01 57.48 58.61 60.41 61.91 62.58 63.18 65.21 64.95 67.83 69.65 70.08 69.86 69.80 70.01 70.15 69.52 69.53 67.93 69.95 70.84 70.86 71.44 70.84 70.52 70.52 69.91 69.32 68.64 66.29
39.48 39.26 32.32 25.35 28.97 32.89 39.24 34.87 40.62 46.78 48.42 48.49 49.65 50.43 51.52 52.28 53.15 54.12 54.63 55.69 57.12 58.45 59.64 61.19 62.53 64.24 65.91 68.08 68.66 69.65 70.11 69.86 69.82 70.54 70.38 70.20 69.40 68.56 68.74 68.58 70.60 71.40 70.69 70.60 70.57 69.98 69.21 65.63 61.84
37.45 34.66 41.92 34.26 36.04 32.91 37.07 41.04 45.16 47.12 47.19 48.35 49.05 49.99 50.76 51.60 52.22 53.34 54.95 55.93 56.23 56.99 58.21 59.97 60.79 63.09 66.68 68.82 69.83 70.08 70.48 70.43 70.01 70.55 71.18 70.96 70.21 69.06 68.44 67.76 68.71 70.18 70.35 69.05 66.54 63.35 58.29 57.81 57.75
38.92 42.27 33.58 34.58 25.95 25.03 33.36 36.57 38.52 42.95 44.81 46.31 45.83 46.24 47.97 49.77 50.91 53.17 54.10 54.70 56.03 57.20 58.52 59.66 59.63 59.49 62.68 67.16 69.21 69.40 69.92 70.38 70.48 70.48 70.31 70.30 69.03 68.56 70.06 67.42 68.64 68.94 67.91 65.67 63.12 61.92 58.14 54.50 55.91
36.31 36.24 34.96 36.33 34.43 28.50 28.05 34.37 44.68 42.95 45.61 46.72 45.06 46.08 47.30 48.53 49.79 51.28 51.64 52.89 54.02 55.89 57.26 59.55 61.99 62.38 62.24 62.22 64.18 67.43 68.78 69.81 70.38 70.17 69.59 68.81 67.69 68.07 68.86 67.27 67.47 66.67 65.28 64.06 62.46 59.36 54.63 53.99 52.75
35.28 31.81 31.88 27.28 29.72 33.30 33.70 35.11 44.33 43.31 43.77 44.52 43.97 44.94 46.38 47.91 48.78 49.63 50.12 51.05 51.70 53.08 55.99 57.46 60.06 62.49 64.62 64.98 64.52 64.51 67.25 68.87 69.46 69.85 68.73 67.89 66.59 65.06 66.79 65.52 65.12 64.45 63.47 59.80 57.22 52.98 51.78 51.06 48.02
MSLP
1011.56 1010.70 1010.30 1009.27 1007.65 1005.28 1002.80 1002.37 1002.75 1002.43 1002.66 1003.22 1003.27 1002.53 1002.26 1002.80 1002.76 1004.17 1006.02 1006.40 1006.79 1008.11 1009.67 1011.08 1011.92 1012.41 1012.79 1013.19 1013.48 1013.81 1014.09 1014.34 1014.79 1015.18 1015.56 1015.99 1016.35 1016.60 1016.75 1016.90 1016.99 1017.02 1017.13 1017.34 1017.44 1017.55 1017.84 1018.10 1018.23
1010.70 1010.45 1009.63 1007.78 1005.95 1003.30 1001.80 1002.33 1002.43 1002.76 1003.25 1003.60 1003.64 1003.36 1003.06 1002.52 1003.67 1005.25 1006.24 1007.00 1007.46 1008.33 1009.62 1010.57 1011.88 1012.40 1012.80 1013.27 1013.56 1013.88 1014.20 1014.52 1014.93 1015.33 1015.77 1016.14 1016.54 1016.83 1016.98 1017.11 1017.25 1017.32 1017.43 1017.60 1017.70 1017.84 1017.98 1018.17 1018.35
1010.86 1010.25 1008.30 1006.40 1004.45 1002.61 1001.40 1002.48 1002.80 1003.24 1003.40 1003.44 1003.19 1003.18 1002.75 1002.80 1004.12 1004.88 1005.67 1007.01 1007.73 1008.70 1009.71 1010.56 1011.84 1012.40 1012.81 1013.25 1013.55 1013.97 1014.34 1014.70 1015.07 1015.46 1015.86 1016.29 1016.66 1016.97 1017.17 1017.30 1017.39 1017.58 1017.69 1017.86 1018.01 1018.16 1018.31 1018.43 1018.56
1009.89 1009.13 1008.24 1006.21 1003.63 1002.96 1002.79 1002.94 1003.47 1003.24 1003.39 1003.44 1002.97 1002.73 1003.15 1004.12 1004.09 1004.72 1006.36 1006.93 1007.84 1008.76 1009.63 1011.33 1012.09 1012.49 1012.85 1013.17 1013.53 1014.02 1014.46 1014.82 1015.19 1015.53 1016.00 1016.40 1016.79 1017.05 1017.36 1017.48 1017.62 1017.70 1017.89 1018.13 1018.29 1018.54 1018.72 1018.77 1018.84
1009.55 1008.24 1006.32 1004.92 1003.58 1003.38 1003.73 1003.55 1003.93 1003.62 1003.56 1003.51 1003.45 1002.31 1002.82 1004.50 1005.03 1005.47 1006.34 1006.90 1007.50 1008.48 1009.35 1011.20 1012.12 1012.58 1012.88 1013.19 1013.54 1014.04 1014.51 1014.87 1015.26 1015.67 1016.11 1016.49 1016.83 1017.17 1017.46 1017.66 1017.75 1017.88 1018.07 1018.25 1018.55 1018.81 1019.03 1019.19 1019.25
1008.44 1007.68 1005.69 1003.98 1003.30 1003.84 1003.91 1003.95 1004.02 1003.74 1003.61 1003.57 1003.37 1002.98 1003.16 1004.94 1005.20 1005.84 1006.50 1007.00 1007.69 1008.23 1009.23 1010.69 1012.04 1012.49 1012.93 1013.22 1013.54 1013.99 1014.44 1014.88 1015.25 1015.70 1016.14 1016.54 1016.88 1017.21 1017.51 1017.78 1017.94 1018.02 1018.23 1018.49 1018.65 1018.88 1019.17 1019.33 1019.48
1008.16 1006.80 1005.06 1004.00 1003.27 1003.45 1003.79 1004.09 1003.88 1003.49 1003.35 1003.35 1003.97 1003.30 1003.74 1004.87 1005.54 1006.18 1006.76 1007.36 1008.06 1008.83 1009.59 1010.68 1011.56 1012.34 1012.95 1013.37 1013.70 1013.98 1014.35 1014.85 1015.24 1015.70 1016.15 1016.56 1016.94 1017.28 1017.50 1017.80 1018.04 1018.23 1018.41 1018.63 1018.87 1018.96 1019.14 1019.35 1019.49
1008.25 1007.00 1005.25 1004.45 1003.76 1003.55 1004.11 1004.29 1004.05 1003.82 1003.35 1004.11 1003.82 1002.90 1003.57 1004.72 1006.15 1006.61 1007.18 1007.72 1008.43 1009.15 1009.79 1010.58 1011.31 1012.02 1012.69 1013.35 1013.93 1014.16 1014.42 1014.87 1015.27 1015.74 1016.22 1016.63 1017.06 1017.40 1017.64 1017.89 1018.15 1018.37 1018.62 1018.83 1019.00 1019.18 1019.26 1019.35 1019.53
1008.62 1006.99 1004.66 1004.19 1004.09 1003.91 1004.45 1004.38 1004.33 1004.43 1004.00 1003.87 1004.04 1004.43 1005.07 1005.61 1006.48 1007.03 1007.45 1008.02 1008.58 1009.30 1009.76 1010.39 1010.96 1011.61 1012.16 1012.78 1013.87 1014.51 1014.75 1015.04 1015.45 1015.84 1016.30 1016.77 1016.61 1017.18 1017.64 1017.53 1018.01 1018.35 1018.70 1018.99 1019.14 1019.33 1019.44 1019.58 1019.72
1007.96 1006.23 1004.65 1004.46 1004.58 1004.62 1004.56 1004.40 1004.29 1004.38 1003.61 1003.56 1003.86 1004.50 1005.37 1005.94 1006.29 1006.55 1006.80 1007.16 1007.81 1008.60 1009.37 1010.13 1010.70 1011.26 1011.82 1012.20 1013.22 1014.01 1014.46 1014.86 1015.15 1015.41 1015.95 1015.95 1016.06 1016.53 1016.81 1017.38 1018.12 1018.48 1018.71 1018.99 1019.24 1019.40 1019.52 1019.53 1018.67
1007.31 1005.47 1005.19 1005.61 1005.83 1005.35 1004.79 1004.50 1004.54 1004.24 1003.42 1003.29 1003.40 1004.13 1004.70 1005.42 1005.72 1005.86 1006.15 1006.47 1007.14 1008.18 1009.09 1009.80 1010.40 1010.94 1011.49 1011.68 1012.50 1013.06 1013.58 1014.01 1014.51 1014.84 1015.23 1015.36 1015.80 1016.28 1016.57 1016.92 1017.75 1017.93 1018.58 1018.34 1018.88 1019.14 1018.72 1018.35 1018.08
1007.07 1006.26 1006.03 1005.82 1005.97 1005.71 1005.20 1004.99 1004.27 1004.20 1003.76 1003.60 1003.96 1004.19 1004.41 1004.59 1004.92 1004.98 1005.30 1005.72 1006.43 1007.26 1008.23 1009.35 1010.06 1010.68 1011.11 1011.19 1011.91 1012.18 1012.64 1013.22 1013.68 1014.20 1014.78 1014.89 1015.42 1015.82 1015.97 1016.05 1016.57 1016.94 1017.42 1017.32 1017.77 1017.80 1017.80 1018.21 1018.35
1006.68 1006.25 1006.06 1006.41 1006.09 1005.71 1005.54 1004.86 1004.55 1003.76 1003.90 1003.90 1003.88 1003.94 1003.86 1003.84 1003.94 1004.51 1004.70 1005.15 1005.96 1006.63 1007.60 1008.69 1009.54 1010.19 1010.78 1011.15 1011.35 1011.70 1012.16 1012.66 1013.10 1013.68 1014.30 1014.45 1014.75 1015.26 1015.49 1015.67 1015.91 1016.30 1016.59 1016.99 1017.22 1017.30 1017.76 1018.01 1018.08
1005.96 1006.18 1005.99 1006.17 1006.16 1005.87 1005.56 1004.99 1004.81 1003.53 1003.90 1003.72 1003.42 1003.06 1003.06 1003.17 1003.20 1003.64 1004.29 1004.57 1005.11 1005.91 1006.91 1008.16 1008.93 1009.69 1010.29 1010.71 1011.06 1011.47 1011.83 1012.08 1012.81 1013.10 1013.56 1014.20 1014.29 1014.69 1015.01 1015.34 1015.63 1015.91 1016.17 1016.47 1016.74 1016.99 1017.27 1017.46 1017.59
1006.53 1006.33 1005.87 1005.66 1005.76 1005.83 1005.87 1004.37 1002.80 1003.60 1003.37 1003.03 1002.46 1002.28 1002.32 1002.42 1002.68 1003.02 1003.50 1003.82 1004.49 1005.30 1006.17 1007.42 1008.34 1009.13 1009.74 1010.26 1010.68 1011.05 1011.19 1011.69 1012.16 1012.49 1013.20 1013.71 1014.00 1014.24 1014.58 1014.82 1015.14 1015.41 1015.85 1016.24 1016.59 1016.86 1017.07 1017.09 1017.25
1006.38 1006.17 1004.67 1004.06 1004.95 1005.58 1005.75 1001.89 1002.03 1001.79 1002.31 1001.84 1001.97 1001.77 1001.57 1001.56 1001.97 1002.29 1002.84 1003.39 1003.85 1004.59 1005.31 1006.76 1007.64 1008.33 1009.14 1009.66 1010.28 1010.56 1010.67 1011.22 1011.49 1011.96 1012.52 1013.17 1013.55 1013.78 1014.32 1014.31 1014.63 1014.95 1015.50 1015.92 1016.16 1016.50 1016.70 1016.80 1016.81
1005.22 1003.26 1003.26 1003.29 1003.52 1004.23 1004.47 1001.29 1001.47 1001.36 1002.08 1001.42 1001.08 1000.94 1000.79 1000.75 1001.09 1001.70 1002.07 1002.55 1003.02 1003.66 1004.57 1005.70 1006.88 1007.52 1008.35 1009.06 1009.57 1009.97 1010.23 1010.72 1010.90 1011.43 1011.94 1012.73 1013.03 1013.38 1013.60 1013.76 1013.99 1014.65 1015.04 1015.40 1015.68 1015.98 1016.24 1016.34 1016.72
1002.71 1002.94 1002.41 1001.99 1002.89 1003.63 1002.88 1001.73 1001.55 1001.97 1001.55 1001.02 1000.50 1000.19 1000.09 1000.08 1000.25 1000.85 1001.56 1001.95 1002.48 1002.89 1003.81 1004.78 1005.90 1006.77 1007.57 1008.25 1008.86 1009.14 1009.54 1010.06 1010.45 1010.86 1011.35 1011.79 1012.31 1012.63 1013.08 1013.10 1013.58 1014.29 1014.54 1014.87 1015.21 1015.50 1016.00 1016.26 1016.55
1002.89 1002.74 1002.48 1002.34 1003.17 1003.47 1002.42 1001.68 1001.33 1001.21 1001.54 1001.04 1000.51 1000.08 1000.00 999.87 1000.00 1000.39 1001.15 1001.97 1002.33 1002.92 1003.39 1004.16 1004.94 1005.76 1006.66 1007.18 1007.51 1007.90 1008.11 1008.88 1009.58 1009.88 1010.24 1010.74 1011.26 1011.82 1012.30 1012.53 1013.11 1013.66 1013.80 1014.15 1014.74 1015.16 1015.67 1016.10 1016.32
1004.02 1003.56 1002.93 1002.92 1003.33 1003.96 1002.32 1001.38 1001.08 1000.84 1000.89 1000.95 1000.46 999.90 999.61 999.77 999.88 1000.02 1000.71 1001.58 1002.36 1002.72 1003.19 1003.75 1004.21 1004.86 1005.63 1005.89 1006.28 1006.67 1007.12 1007.64 1008.29 1008.81 1009.17 1009.70 1010.21 1010.72 1011.36 1011.80 1012.11 1012.81 1013.16 1013.66 1014.11 1014.53 1015.30 1015.84 1016.26
1004.16 1003.52 1003.36 1003.69 1003.73 1003.77 1003.15 1001.73 1000.79 1000.23 1000.19 1000.37 1000.13 999.85 999.57 999.47 999.66 999.90 1000.10 1000.78 1001.30 1001.82 1002.52 1002.93 1003.20 1003.63 1004.49 1005.26 1005.58 1005.99 1006.42 1006.80 1007.26 1007.54 1008.12 1008.58 1009.29 1009.86 1010.34 1010.98 1011.36 1011.92 1012.49 1012.82 1013.47 1013.96 1014.56 1015.11 1016.34
1003.59 1004.05 1004.35 1004.05 1004.13 1002.76 1002.43 999.96 999.40 998.68 998.55 998.88 998.97 999.16 999.41 999.70 999.85 999.99 1000.03 1000.08 1000.43 1000.94 1001.55 1002.11 1002.53 1002.86 1003.34 1004.16 1004.56 1004.76 1004.69 1004.83 1005.19 1006.11 1006.85 1007.49 1008.37 1009.01 1009.44 1009.95 1010.63 1011.04 1011.56 1011.98 1012.68 1013.46 1013.54 1013.99 1015.06
1003.10 1003.87 1004.48 1004.83 1004.12 1003.68 1002.26 1000.95 998.14 998.33 997.48 997.25 997.74 998.61 999.24 999.66 1000.05 1000.03 999.98 999.93 999.83 1000.05 1000.51 1001.38 1001.69 1001.95 1002.37 1002.87 1003.59 1003.82 1004.18 1004.17 1004.53 1005.52 1006.01 1006.68 1007.38 1008.07 1008.62 1009.13 1009.81 1010.47 1010.91 1011.38 1011.85 1012.78 1013.26 1013.99 1014.37
1004.51 1004.77 1004.93 1005.16 1004.55 1003.09 1001.12 1000.94 996.75 997.31 996.38 996.96 997.31 998.11 998.96 999.74 1000.27 1000.09 999.82 999.75 999.68 999.77 1000.06 1000.65 1001.00 1001.06 1001.61 1001.93 1002.47 1002.94 1003.03 1003.54 1003.79 1004.27 1004.95 1005.58 1006.42 1007.10 1007.71 1008.35 1008.88 1009.56 1010.08 1010.62 1011.27 1012.01 1012.67 1013.02 1013.45
1004.57 1004.84 1004.88 1004.78 1003.73 1001.30 1001.00 1000.66 997.29 996.81 996.93 997.03 997.92 998.44 999.43 999.93 1000.38 1000.06 999.88 999.88 999.81 999.77 1000.09 1000.36 1000.38 1000.32 1000.61 1001.11 1001.51 1002.09 1002.41 1002.85 1003.05 1003.40 1004.11 1004.62 1005.24 1006.10 1006.41 1007.29 1007.93 1008.64 1009.17 1009.90 1010.80 1011.55 1011.97 1012.47 1013.03
1004.07 1003.95 1002.87 1002.67 1001.97 1000.86 1000.91 998.94 996.63 997.76 997.82 997.87 998.70 999.29 999.66 1000.09 999.97 1000.03 1000.01 999.97 999.98 1000.11 1000.15 1000.02 1000.01 999.82 999.93 1000.45 1000.87 1001.35 1001.83 1002.14 1002.46 1002.77 1003.06 1003.65 1004.20 1005.20 1006.03 1006.71 1007.28 1007.87 1008.51 1009.35 1010.17 1010.98 1011.48 1012.33 1013.23
1004.51 1003.94 1003.62 1003.70 1002.76 1001.44 999.87 998.54 998.24 998.08 998.09 998.43 999.19 999.53 1000.07 1000.58 1000.95 1000.88 1000.75 1000.57 1000.41 1000.19 1000.09 1000.22 1000.19 999.82 999.73 999.98 1000.34 1000.65 1000.91 1001.21 1001.49 1001.84 1002.40 1002.99 1003.86 1004.23 1005.33 1005.96 1006.69 1007.26 1007.90 1008.81 1009.87 1010.90 1011.86 1012.57 1013.30
1006.45 1005.80 1005.39 1005.06 1004.20 1002.62 1000.69 999.03 998.05 998.34 999.36 1000.26 1000.79 1001.16 1001.42 1001.52 1001.57 1001.45 1001.24 1001.21 1000.97 1000.60 1000.46 1000.38 1000.31 999.88 999.78 999.81 999.99 1000.28 1000.40 1000.62 1001.18 1001.75 1001.84 1002.45 1003.28 1004.04 1004.55 1005.51 1005.90 1006.68 1007.62 1008.53 1009.56 1010.49 1011.68 1012.33 1013.32
1007.12 1007.00 1007.47 1006.54 1005.26 1003.64 1001.72 999.61 999.38 999.91 1000.02 1000.20 1001.36 1001.80 1001.84 1002.01 1001.94 1001.88 1001.73 1001.52 1001.36 1001.04 1000.63 1000.25 1000.14 999.93 999.85 999.78 999.67 999.71 999.76 999.75 1000.37 1001.10 1001.68 1002.28 1002.82 1003.46 1003.97 1004.93 1005.44 1006.21 1007.12 1008.00 1009.10 1010.30 1011.50 1012.39 1013.45
1009.21 1009.31 1009.15 1008.32 1006.81 1005.45 1003.84 1001.56 1001.89 1002.11 1002.02 1002.20 1002.56 1002.50 1002.46 1002.40 1002.11 1001.93 1001.87 1001.78 1001.71 1001.39 1000.90 1000.38 1000.17 999.96 999.83 999.84 999.62 999.40 999.34 999.42 999.64 1000.29 1000.96 1001.86 1002.39 1003.20 1003.90 1004.89 1005.44 1006.07 1006.81 1007.73 1009.02 1010.27 1011.32 1012.34 1013.39
Wind_Speed
10 6 5 7 8 7 12 7 2 5 5 1 5 6 11 6 1 5 6 10 22 23 23 20 15 16 17 17 18 18 19 19 18 17 16 15 13 12 11 11 11 13 14 15 15 16 15 15 14
6 4 6 3 9 11 11 5 10 1 5 6 7 10 7 4 2 9 13 12 22 24 22 22 16 16 18 18 18 18 19 19 18 17 16 15 14 12 11 11 10 12 13 14 15 15 15 15 12
7 6 7 6 9 13 6 10 4 5 3 4 7 7 8 3 4 12 11 20 24 22 22 20 17 17 18 18 18 18 18 18 18 17 16 15 14 13 11 10 10 11 12 14 14 14 13 11 11
6 6 5 10 14 12 4 9 2 4 4 3 5 8 4 3 5 8 21 24 24 22 22 20 15 16 18 18 18 18 17 17 17 16 16 15 14 14 11 11 10 12 12 13 13 12 10 9 9
5 4 10 12 16 7 8 5 5 4 2 4 4 9 3 4 5 17 20 23 24 23 20 21 16 17 18 19 19 18 18 17 17 16 16 15 15 13 12 10 11 11 12 12 12 11 8 7 7
8 6 10 15 16 8 9 8 7 6 3 1 6 7 4 7 12 18 19 22 22 23 21 22 18 18 17 18 18 18 17 17 16 16 15 15 14 13 12 10 10 10 11 11 11 10 9 8 6
15 10 16 16 12 9 12 6 11 6 5 3 6 8 6 9 11 16 17 19 20 19 19 19 20 18 15 15 16 17 17 16 16 15 14 13 13 12 12 11 10 10 11 11 11 11 10 8 7
10 10 18 13 15 16 5 7 4 8 1 4 2 3 6 11 13 14 16 17 18 17 18 19 18 18 17 16 13 15 16 16 15 15 13 13 12 12 11 11 10 10 10 10 10 10 9 9 8
10 12 16 21 14 10 4 9 6 2 7 2 2 6 6 10 14 13 15 17 16 15 17 17 18 18 17 16 14 12 14 14 13 13 12 12 11 13 14 10 13 11 10 9 10 9 9 8 6
14 15 22 13 12 9 7 9 3 6 10 4 6 6 6 11 15 16 18 19 20 20 19 17 17 18 16 13 15 15 14 13 13 14 15 11 11 11 12 11 10 10 10 9 9 8 8 10 8
15 23 16 7 16 13 13 11 11 11 14 10 6 5 4 6 14 17 17 18 19 19 16 18 17 17 16 13 12 9 9 10 10 15 14 12 9 9 9 8 8 9 10 9 9 9 8 9 5
17 18 20 14 12 11 13 13 14 14 15 5 10 11 8 7 14 18 19 18 19 22 20 19 18 17 17 12 11 12 11 11 10 13 15 11 8 10 10 8 10 9 9 9 9 7 7 7 7
22 20 13 16 16 18 17 20 20 21 15 16 15 14 14 11 13 17 18 17 19 20 20 20 19 17 15 15 12 11 12 11 12 12 15 12 11 10 10 9 9 9 9 9 8 7 7 8 7
9 21 21 17 16 18 18 18 19 15 13 16 19 19 16 14 12 15 18 19 20 19 20 19 20 18 16 15 14 12 11 12 11 11 13 16 12 11 11 10 10 9 9 9 8 8 7 7 7
16 17 12 17 17 14 13 24 33 21 21 17 13 15 15 13 12 16 21 21 20 18 19 20 19 18 18 17 15 12 11 11 12 12 14 17 15 13 13 11 10 10 9 10 8 8 7 7 7
19 17 20 21 20 12 12 28 7 7 22 24 22 19 18 18 14 16 19 21 20 19 20 19 17 19 19 16 13 11 11 11 11 11 11 16 16 15 14 11 11 10 9 9 9 8 8 8 7
17 20 25 22 13 22 22 27 18 7 13 17 17 18 18 19 16 14 17 21 20 20 18 19 19 20 20 17 14 13 13 12 11 11 11 15 17 17 13 12 11 12 10 9 9 9 9 8 7
24 25 21 19 15 17 20 26 17 6 11 15 16 16 16 18 19 14 14 17 18 18 17 17 17 18 18 14 13 11 11 11 11 11 12 15 15 18 15 12 12 12 11 10 10 11 9 8 7
19 16 18 19 13 13 21 20 20 18 16 15 16 15 16 19 16 15 10 11 14 16 17 17 17 18 15 14 14 13 14 13 13 13 17 17 16 18 17 13 13 13 12 12 12 11 10 8 6
22 17 16 12 7 9 14 17 14 16 17 19 20 20 18 16 17 17 13 12 12 15 17 18 19 19 17 14 13 13 13 12 12 13 15 17 19 18 17 16 14 15 12 14 14 14 6 6 7
23 24 17 12 11 12 9 17 21 22 22 20 20 21 19 19 19 17 17 14 12 14 15 16 19 19 18 18 13 12 12 11 12 14 14 17 19 19 19 18 15 15 13 12 14 14 15 9 6
26 25 20 19 15 16 13 18 18 19 20 21 23 23 21 19 18 16 17 17 15 13 13 16 16 17 18 19 17 19 16 15 14 14 13 14 19 20 20 19 18 15 13 13 12 13 14 11 9
24 16 17 18 19 16 21 14 20 21 23 25 22 17 14 13 13 17 17 18 18 16 14 11 13 15 16 18 19 16 18 14 11 12 15 15 16 20 20 19 18 16 12 13 13 14 13 11 9
18 14 14 13 13 17 25 18 21 20 27 19 16 11 9 9 13 16 15 15 15 14 12 12 13 15 15 18 21 21 20 18 14 14 12 13 13 14 19 19 17 16 15 15 13 14 16 13 11
17 18 8 10 13 20 18 17 25 4 11 8 6 4 6 5 5 10 10 10 12 14 14 13 14 16 16 18 20 22 22 20 19 17 13 15 12 12 17 19 17 14 16 14 12 14 14 13 12
26 22 11 18 15 18 20 14 17 12 12 3 9 18 11 16 9 8 8 9 8 8 9 11 13 14 14 16 18 18 20 14 14 16 13 13 13 13 15 15 15 17 15 13 14 11 10 10 8
21 25 24 21 16 10 14 18 23 22 18 19 15 11 10 8 6 8 7 8 10 9 9 8 11 12 12 14 14 16 16 18 16 18 15 12 13 11 15 16 15 16 16 16 15 10 11 10 8
8 10 18 14 18 23 17 21 12 7 10 8 7 6 5 5 4 6 7 8 7 7 6 6 9 11 11 13 13 13 16 17 17 14 17 15 11 15 17 15 15 16 17 16 15 12 12 11 9
4 7 4 4 13 9 15 18 5 9 10 7 5 8 7 6 6 6 7 8 9 8 8 7 7 8 9 11 14 15 15 16 16 14 16 14 12 14 15 14 16 18 18 16 14 13 13 12 12
4 4 6 4 4 8 13 13 8 10 10 9 5 8 9 8 8 7 7 7 9 10 10 9 7 7 7 9 11 13 15 15 16 16 15 13 13 11 15 15 15 17 16 16 16 14 12 14 13
Wind_Direction
263 272 265 238 240 234 242 207 339 183 197 2 284 195 200 340 250 16 136 151 147 148 153 162 156 151 143 141 136 136 135 133 133 134 133 136 139 141 136 129 129 129 127 127 125 124 122 120 114
284 253 227 261 249 226 216 168 201 81 322 278 254 230 223 215 108 107 140 164 156 149 154 161 156 153 145 144 140 137 136 135 136 136 137 140 142 141 138 131 130 130 130 131 131 129 127 126 123
245 251 255 236 238 243 254 178 114 335 348 197 206 228 217 137 121 149 126 157 154 153 157 153 158 154 149 146 141 138 139 138 139 139 141 143 144 144 141 133 133 136 137 138 136 131 131 129 128
221 195 215 244 229 234 278 153 14 332 126 183 250 196 183 39 137 142 144 155 153 154 160 140 157 155 151 148 144 142 143 141 142 143 147 148 150 150 147 140 142 144 144 142 137 135 134 128 131
220 248 243 238 240 231 231 245 305 294 302 277 230 224 180 119 124 136 151 156 158 158 159 159 160 159 155 153 149 149 149 147 148 149 152 154 154 153 149 148 148 148 148 142 141 140 133 131 134
222 273 233 234 228 213 244 238 265 250 271 290 206 266 140 118 145 151 156 161 160 159 158 160 161 159 158 157 154 154 153 153 152 153 155 156 153 152 151 152 150 146 143 144 143 142 143 142 143
247 222 245 250 252 238 241 222 230 240 246 169 306 237 87 150 137 154 158 159 160 159 160 162 170 163 157 159 159 158 157 158 156 156 157 155 152 156 155 155 151 146 146 148 150 150 151 154 154
253 251 249 239 241 240 172 211 217 236 215 331 276 191 123 119 150 152 153 158 160 163 166 167 172 173 172 168 163 163 161 161 160 159 158 154 154 157 158 152 155 154 155 155 157 159 160 159 161
235 239 234 227 236 227 198 229 192 270 265 322 58 41 1 137 151 156 160 162 165 171 171 172 174 178 179 174 170 168 166 162 160 159 155 153 176 175 164 181 150 160 160 162 161 163 161 159 160
216 227 237 242 245 240 238 235 194 252 215 215 185 82 87 157 171 174 177 174 176 176 175 175 178 180 180 179 171 185 178 180 182 181 172 182 180 187 186 155 158 164 164 165 165 167 164 195 181
218 238 235 242 249 250 250 241 225 263 250 242 210 2 33 187 193 192 193 185 179 175 180 182 179 180 184 186 177 187 184 186 189 188 180 188 180 184 194 169 177 178 182 182 182 176 202 205 214
241 236 245 227 232 244 235 262 254 251 257 261 288 305 289 232 213 207 198 189 181 183 183 185 182 183 189 186 189 190 192 191 192 192 187 184 188 182 193 187 186 189 181 189 192 192 203 195 210
228 246 221 244 246 249 261 254 260 257 252 263 274 270 270 259 225 217 206 194 190 188 186 188 186 189 189 199 192 199 201 195 198 191 191 193 195 189 191 193 193 193 184 189 194 197 194 199 203
217 232 242 232 232 250 253 252 250 246 243 252 256 257 252 240 237 210 205 199 194 191 191 187 192 192 191 198 198 200 200 195 205 198 196 203 201 190 194 195 199 200 195 194 196 196 197 205 208
247 238 229 231 234 242 255 258 241 247 252 248 245 239 243 236 232 218 206 204 196 196 192 192 193 192 195 199 200 200 200 208 202 206 203 201 204 197 204 201 201 200 197 201 203 194 211 209 205
222 232 240 228 217 217 198 256 220 229 221 236 237 246 244 240 229 221 213 210 197 200 195 191 194 194 197 197 200 205 205 205 206 209 201 208 206 204 205 206 204 199 197 201 200 202 206 217 217
212 230 221 238 210 212 208 249 249 206 218 237 234 239 240 240 219 228 212 211 205 201 196 195 197 200 198 200 201 205 205 209 211 207 210 206 211 208 210 213 205 197 201 202 204 208 220 215 225
214 226 245 224 211 219 220 243 247 197 229 234 247 237 237 241 230 215 221 211 212 214 202 202 198 203 201 202 206 204 207 206 212 210 213 207 211 208 208 211 209 200 205 203 207 213 205 226 226
243 247 234 234 214 248 232 242 234 228 236 245 246 234 238 241 242 225 211 225 226 220 217 214 210 205 199 202 202 206 209 207 210 214 211 208 209 209 207 211 200 203 208 208 204 205 211 213 215
239 232 240 239 211 238 248 245 235 232 240 243 245 246 240 239 240 237 226 213 208 221 223 218 219 212 209 207 211 213 213 212 213 212 211 210 206 205 207 211 201 202 207 206 204 209 184 199 195
225 229 222 236 186 232 260 257 247 243 244 236 238 244 249 241 241 240 243 236 231 221 219 224 225 222 212 218 216 212 217 217 211 215 212 211 210 206 204 206 208 202 209 205 207 204 201 194 180
225 222 242 242 240 247 215 268 255 240 231 233 235 237 241 246 248 250 256 254 248 248 233 226 226 227 223 211 219 213 212 208 213 214 212 210 206 208 205 206 207 204 201 209 200 204 210 212 184
235 232 215 238 240 252 248 257 254 249 247 241 238 230 240 244 249 247 244 250 254 252 240 230 230 227 227 212 216 213 217 222 214 213 218 210 201 207 206 202 202 205 205 204 200 201 204 196 181
223 229 212 220 237 240 240 246 263 246 247 248 250 248 242 242 239 252 255 252 251 249 250 244 237 235 226 223 213 220 219 220 217 215 209 204 203 203 206 202 201 201 200 202 199 194 199 204 197
196 189 180 208 215 236 235 229 244 106 1 269 334 313 302 189 237 259 245 246 250 241 240 236 235 238 224 219 219 218 221 221 223 219 211 209 202 197 202 199 195 197 198 196 192 196 202 196 197
211 195 210 212 217 233 215 237 230 228 281 298 318 230 254 234 284 252 259 292 276 273 269 254 247 237 225 217 219 221 224 221 222 222 215 217 204 200 195 195 196 195 187 188 190 198 193 173 178
206 223 224 255 265 268 246 224 250 268 271 277 278 274 319 349 334 309 321 322 301 284 274 255 259 253 237 220 220 222 221 221 219 222 216 213 209 194 187 186 193 193 188 181 177 174 157 153 146
234 278 218 226 233 240 237 232 239 133 98 79 63 37 31 36 23 20 20 9 351 336 316 294 265 256 247 234 227 227 223 224 221 216 215 209 193 190 196 185 185 184 183 176 173 166 167 148 152
339 236 248 287 227 222 227 234 272 316 296 245 26 14 16 10 20 25 14 11 11 2 352 349 312 280 266 250 240 233 230 224 219 214 216 207 184 193 187 187 187 183 181 172 171 167 152 147 149
36 6 20 326 81 225 248 248 96 84 75 60 28 357 356 349 353 357 359 9 5 1 358 357 343 321 296 280 266 248 238 229 219 214 206 191 181 170 186 188 191 187 178 163 161 148 145 148 146